Flag for Liechtenstein Weather past 2 weeks in Vaduz, Liechtenstein

Now
80 °F

Haze.


Feels Like: 81 °F
Forecast: 65 / 95 °F
Wind: 6 mph from Northwest

Location: Vaduz

Current Time: Aug 5, 2015 at 3:18:35 PM

Latest Report: Aug 5, 2015 at 2:00 PM


Visibility: 7 mi

Pressure: 29.96 "Hg

Humidity: 57%

Dew point: 63 °F

Location of VaduzLocation

Historic Weather in Vaduz — Graph

°F

Vaduz temperature yesterday

Maximum temperature yesterday: 84 °F (at 1:00 PM)
Minimum temperature yesterday: 65 °F (at 9:00 PM)
Average temperature yesterday: 73 °F

Past Weeks' High & Low Weather Summary

 TemperatureHumidityPressure
High91 °F (Jul 22, 4:00 PM)97% (Aug 4, 9:00 PM)30.13 "Hg (Aug 4, 9:00 PM)
Low48 °F (Jul 31, 6:00 AM)39% (Jul 22, 4:00 PM)29.67 "Hg (Jul 24, 7:00 PM)
Average68 °F73%29.94 "Hg
* Reported Jul 21 2:00 PM — Aug 5 2:00 PM, Vaduz, Weather by CustomWeather, © 2015

Note: Actual official high and low records may vary slightly from our data, if they occured in-between our weather recording intervals... More about our weather records

Advertising

Vaduz weather history for previous 24 hours

 ConditionsComfort  
Time TempWeatherWind HumidityBarometerVisibility
2:00 PM
Wed, Aug 5
80 °FHaze.6 mph57%29.96 "Hg7 mi
1:00 PM77 °FWarm.6 mph58%29.99 "HgN/A
12:00 PM75 °FMild.3 mph59%30.02 "HgN/A
11:00 AM72 °FPassing clouds.1 mph66%30.05 "Hg9 mi
10:00 AM69 °FMild.2 mph68%30.07 "HgN/A
9:00 AM67 °FMild.2 mph75%30.08 "HgN/A
8:00 AM64 °FPassing clouds.3 mph82%30.09 "Hg11 mi
7:00 AM62 °FMild.3 mph86%30.08 "HgN/A
4:00 AM62 °FMild.3 mph90%30.10 "HgN/A
3:00 AM63 °FMild.3 mph91%30.12 "HgN/A
2:00 AM63 °FFog.3 mph91%30.12 "Hg6 mi
1:00 AM64 °FMild.3 mph91%30.13 "HgN/A
12:00 AM64 °FMild.2 mph94%30.12 "HgN/A
11:00 PM
Tue, Aug 4
65 °FFog.3 mph92%30.11 "Hg6 mi
10:00 PM66 °FMild.3 mph92%30.10 "HgN/A
9:00 PM65 °FMild.No wind97%30.08 "HgN/A
8:00 PM68 °FFog.No wind92%30.06 "Hg6 mi
7:00 PM68 °FMild.3 mph89%30.06 "HgN/A
6:00 PM67 °FMild.2 mph93%30.06 "HgN/A
5:00 PM75 °FOvercast.8 mph54%30.01 "Hg7 mi
4:00 PM78 °FWarm.12 mph53%29.96 "HgN/A
3:00 PM82 °FWarm.8 mph47%29.93 "HgN/A
Weather by CustomWeather, © 2015

See weather overviewHow to use our weather pages